This is the latest recevied weather packets stored in our database for station/object WW3TRG. If no packets are shown the sender has not sent any weather packets the latest 10 day(s).
| Time | Temp. | Humidity | Pressure | Rain* | Wind** | Luminosity | Snow |
|---|---|---|---|---|---|---|---|
| 1787781345 | 24.44° C | 69% | 1016.6 hPa | 0 mm | - | 48 W/m² | - |
| 1787781044 | 25° C | 69% | 1016.4 hPa | 0 mm | - | 51 W/m² | - |
| 1787780743 | 25° C | 68% | 1016.5 hPa | 0 mm | - | 64 W/m² | - |
| 1787780438 | 25° C | 68% | 1016.4 hPa | 0 mm | - | 66 W/m² | - |
| 1787780134 | 25° C | 68% | 1016.6 hPa | 0 mm | - | 45 W/m² | - |
| 1787779830 | 25° C | 67% | 1016.5 hPa | 0 mm | - | 51 W/m² | - |
| 1787779529 | 25.56° C | 65% | 1016.4 hPa | 0 mm | - | 76 W/m² | - |
| 1787779223 | 25.56° C | 65% | 1016.4 hPa | 0 mm | - | 87 W/m² | - |
| 1787778923 | 25.56° C | 67% | 1016.7 hPa | 0 mm | - | 147 W/m² | - |
| 1787778619 | 25.56° C | 66% | 1016.6 hPa | 0 mm | - | 73 W/m² | - |
| 1787778309 | 25.56° C | 65% | 1016.5 hPa | 0 mm | - | 77 W/m² | - |
| 1787778006 | 26.11° C | 64% | 1016.5 hPa | 0 mm | - | 92 W/m² | - |
| 1787777698 | 26.67° C | 63% | 1016.4 hPa | 0 mm | - | 119 W/m² | - |
| 1787777395 | 26.67° C | 63% | 1016.6 hPa | 0 mm | - | 193 W/m² | - |
| 1787777095 | 26.67° C | 60% | 1016.6 hPa | 0 mm | - | 105 W/m² | - |
| 1787776793 | 27.22° C | 60% | 1016.5 hPa | 0 mm | - | 177 W/m² | - |
| 1787776493 | 27.22° C | 54% | 1016.4 hPa | 0 mm | - | 196 W/m² | - |
| 1787776190 | 26.67° C | 54% | 1016.4 hPa | 0 mm | - | 89 W/m² | - |
| 1787775885 | 26.67° C | 57% | 1016.4 hPa | 0 mm | - | 339 W/m² | - |
| 1787775580 | 27.22° C | 55% | 1016.6 hPa | 0 mm | - | 65 W/m² | - |
| 1787775278 | 27.22° C | 55% | 1016.8 hPa | 0 mm | - | 65 W/m² | - |
| 1787774977 | 27.78° C | 52% | 1016.4 hPa | 0 mm | - | 169 W/m² | - |
| 1787774672 | 27.78° C | 47% | 1016.6 hPa | 0 mm | - | 98 W/m² | - |
| 1787774371 | 27.78° C | 53% | 1016.9 hPa | 0 mm | - | 72 W/m² | - |
| 1787774066 | 28.33° C | 44% | 1017 hPa | 0 mm | - | 141 W/m² | - |
* Rain latest hour (hover to see other rain measurements)
** Current wind speed in m/s (hover to see current wind gust speed)